{"data":{"norad_id":66319,"epoch":"2026-09-20T04:02:02.551776Z","epoch_age_seconds":125388,"freshness":"FRESH","line1":"1 66319U 25253A   26263.16808509  .00016995  00000+0  62553-3 0  9991","line2":"2 66319  42.9984 194.5271 0001414 274.4440  85.6250 15.27587555 49983","mean_motion":15.27587555,"eccentricity":0.0001414,"inclination_deg":42.9984,"raan_deg":194.5271,"arg_perigee_deg":274.444,"mean_anomaly_deg":85.625,"bstar":0.00062553,"rev_number":4998,"period_min":94.266282497961,"perigee_km":482.0563052298,"apogee_km":483.99664226018,"semimajor_km":6861.163473745,"source":"CELESTRAK","updated_at":"2026-09-21T09:00:35.872732Z"}}